Time,TemperatureF,DewpointF,PressureIn,WindDirection,WindDirectionDegrees,WindSpeedMPH,WindSpeedGustMPH,Humidity,HourlyPrecipIn,Conditions,Clouds,dailyrainin,SoftwareType,DateUTC
2013-03-15 00:00:00,26.4,8.8,29.84,WSW,248,3.4,8.3,47,0.00,,,0.00,WUHU216HW,2013-03-15 04:00:00,
2013-03-15 00:01:00,26.4,8.8,29.83,WNW,293,4.9,8.3,47,0.00,,,0.00,WUHU216HW,2013-03-15 04:01:00,
2013-03-15 00:06:00,26.4,8.8,29.84,WSW,248,8.5,8.5,47,0.00,,,0.00,WUHU216HW,2013-03-15 04:06:00,
2013-03-15 00:11:00,26.4,8.8,29.84,NW,315,4.3,8.5,47,0.00,,,0.00,WUHU216HW,2013-03-15 04:11:00,
2013-03-15 00:16:00,26.4,8.8,29.84,SW,225,3.6,6.9,47,0.00,,,0.00,WUHU216HW,2013-03-15 04:16:00,
2013-03-15 00:22:00,26.3,9.2,29.84,NW,315,4.0,5.4,48,0.00,,,0.00,WUHU216HW,2013-03-15 04:22:00,
2013-03-15 00:27:00,26.3,9.2,29.84,SSW,203,5.8,8.9,48,0.00,,,0.00,WUHU216HW,2013-03-15 04:27:00,
2013-03-15 00:32:00,26.1,9.0,29.84,NW,315,4.9,11.4,48,0.00,,,0.00,WUHU216HW,2013-03-15 04:32:00,
2013-03-15 00:37:00,26.1,9.0,29.84,West,270,10.7,11.4,48,0.00,,,0.00,WUHU216HW,2013-03-15 04:37:00,
2013-03-15 00:42:00,26.1,9.0,29.84,WNW,293,4.9,10.7,48,0.00,,,0.00,WUHU216HW,2013-03-15 04:42:00,
2013-03-15 00:47:00,25.9,8.8,29.84,West,270,7.6,10.7,48,0.00,,,0.00,WUHU216HW,2013-03-15 04:47:00,
2013-03-15 00:52:00,25.9,8.8,29.84,WNW,293,4.5,9.8,48,0.00,,,0.00,WUHU216HW,2013-03-15 04:52:00,
2013-03-15 00:57:00,25.9,9.3,29.84,WNW,293,2.0,10.1,49,0.00,,,0.00,WUHU216HW,2013-03-15 04:57:00,
2013-03-15 01:02:00,25.7,9.1,29.84,NW,315,5.1,10.1,49,0.00,,,0.00,WUHU216HW,2013-03-15 05:02:00,
2013-03-15 01:07:00,25.7,9.1,29.84,WNW,293,5.4,9.6,49,0.00,,,0.00,WUHU216HW,2013-03-15 05:07:00,
2013-03-15 01:12:00,25.7,9.1,29.84,NW,315,5.1,12.8,49,0.00,,,0.00,WUHU216HW,2013-03-15 05:12:00,
2013-03-15 01:17:00,25.5,9.4,29.84,WNW,293,6.3,13.0,50,0.00,,,0.00,WUHU216HW,2013-03-15 05:17:00,
2013-03-15 01:22:00,25.5,9.4,29.84,NNW,338,6.0,13.0,50,0.00,,,0.00,WUHU216HW,2013-03-15 05:22:00,
2013-03-15 01:27:00,25.5,9.4,29.84,West,270,5.4,12.8,50,0.00,,,0.00,WUHU216HW,2013-03-15 05:27:00,
2013-03-15 01:32:00,25.4,9.3,29.84,NW,315,8.1,12.8,50,0.00,,,0.00,WUHU216HW,2013-03-15 05:32:00,
2013-03-15 01:38:00,25.4,9.3,29.84,WSW,248,6.9,10.1,50,0.00,,,0.00,WUHU216HW,2013-03-15 05:38:00,
2013-03-15 01:43:00,25.4,9.7,29.84,WNW,293,4.3,12.5,51,0.00,,,0.00,WUHU216HW,2013-03-15 05:43:00,
2013-03-15 01:48:00,25.2,9.5,29.84,West,270,5.8,12.5,51,0.00,,,0.00,WUHU216HW,2013-03-15 05:48:00,
2013-03-15 01:53:00,25.2,9.5,29.84,West,270,6.9,9.2,51,0.00,,,0.00,WUHU216HW,2013-03-15 05:53:00,
2013-03-15 01:58:00,25.0,9.4,29.85,WNW,293,5.6,8.9,51,0.00,,,0.00,WUHU216HW,2013-03-15 05:58:00,
2013-03-15 02:03:00,25.0,9.8,29.84,WNW,293,4.5,10.5,52,0.00,,,0.00,WUHU216HW,2013-03-15 06:03:00,
2013-03-15 02:08:00,25.0,9.8,29.84,West,270,4.7,10.5,52,0.00,,,0.00,WUHU216HW,2013-03-15 06:08:00,
2013-03-15 02:13:00,25.0,9.8,29.84,WSW,248,5.4,9.6,52,0.00,,,0.00,WUHU216HW,2013-03-15 06:13:00,
2013-03-15 02:18:00,25.0,9.8,29.84,SW,225,7.6,11.4,52,0.00,,,0.00,WUHU216HW,2013-03-15 06:18:00,
2013-03-15 02:23:00,25.0,9.8,29.84,WNW,293,7.2,11.4,52,0.00,,,0.00,WUHU216HW,2013-03-15 06:23:00,
2013-03-15 02:28:00,24.8,10.1,29.84,WSW,248,5.1,12.3,53,0.00,,,0.00,WUHU216HW,2013-03-15 06:28:00,
2013-03-15 02:34:00,24.8,10.1,29.84,WNW,293,8.7,12.3,53,0.00,,,0.00,WUHU216HW,2013-03-15 06:34:00,
2013-03-15 02:39:00,24.6,9.9,29.84,West,270,6.0,10.7,53,0.00,,,0.00,WUHU216HW,2013-03-15 06:39:00,
2013-03-15 02:44:00,24.6,10.3,29.84,West,270,6.3,13.9,54,0.00,,,0.00,WUHU216HW,2013-03-15 06:44:00,
2013-03-15 02:49:00,24.6,10.3,29.84,WNW,293,8.3,13.9,54,0.00,,,0.00,WUHU216HW,2013-03-15 06:49:00,
2013-03-15 02:54:00,24.6,10.3,29.84,NNW,338,6.3,11.0,54,0.00,,,0.00,WUHU216HW,2013-03-15 06:54:00,
2013-03-15 02:59:00,24.5,10.2,29.83,WSW,248,11.4,11.4,54,0.00,,,0.00,WUHU216HW,2013-03-15 06:59:00,
2013-03-15 03:04:00,24.5,10.2,29.84,WSW,248,6.3,11.4,54,0.00,,,0.00,WUHU216HW,2013-03-15 07:04:00,
2013-03-15 03:09:00,24.3,10.0,29.84,West,270,6.9,9.6,54,0.00,,,0.00,WUHU216HW,2013-03-15 07:09:00,
2013-03-15 03:14:00,24.3,10.4,29.84,West,270,6.0,11.4,55,0.00,,,0.00,WUHU216HW,2013-03-15 07:14:00,
2013-03-15 03:19:00,24.3,10.4,29.84,WNW,293,5.1,11.4,55,0.00,,,0.00,WUHU216HW,2013-03-15 07:19:00,
2013-03-15 03:24:00,24.3,10.4,29.83,NW,315,4.7,9.2,55,0.00,,,0.00,WUHU216HW,2013-03-15 07:24:00,
2013-03-15 03:29:00,24.3,10.4,29.83,WNW,293,4.7,9.2,55,0.00,,,0.00,WUHU216HW,2013-03-15 07:29:00,
2013-03-15 03:34:00,24.3,10.9,29.83,SW,225,6.7,8.5,56,0.00,,,0.00,WUHU216HW,2013-03-15 07:34:00,
2013-03-15 03:39:00,24.3,10.9,29.83,WNW,293,8.5,8.7,56,0.00,,,0.00,WUHU216HW,2013-03-15 07:39:00,
2013-03-15 03:44:00,24.3,10.9,29.83,SW,225,4.3,8.7,56,0.00,,,0.00,WUHU216HW,2013-03-15 07:44:00,
2013-03-15 03:49:00,24.1,10.7,29.83,West,270,6.9,10.3,56,0.00,,,0.00,WUHU216HW,2013-03-15 07:49:00,
2013-03-15 03:54:00,24.1,10.7,29.82,NNW,338,5.8,11.0,56,0.00,,,0.00,WUHU216HW,2013-03-15 07:54:00,
2013-03-15 03:59:00,24.1,10.7,29.82,North,0,4.7,11.0,56,0.00,,,0.00,WUHU216HW,2013-03-15 07:59:00,
2013-03-15 04:04:00,24.1,10.7,29.82,WNW,293,7.6,10.5,56,0.00,,,0.00,WUHU216HW,2013-03-15 08:04:00,
2013-03-15 04:10:00,23.9,10.9,29.82,West,270,5.6,9.6,57,0.00,,,0.00,WUHU216HW,2013-03-15 08:10:00,
2013-03-15 04:15:00,23.9,10.9,29.82,West,270,2.2,9.6,57,0.00,,,0.00,WUHU216HW,2013-03-15 08:15:00,
2013-03-15 04:20:00,23.9,10.9,29.82,NW,315,6.3,8.7,57,0.00,,,0.00,WUHU216HW,2013-03-15 08:20:00,
2013-03-15 04:25:00,23.9,10.9,29.82,West,270,4.3,10.7,57,0.00,,,0.00,WUHU216HW,2013-03-15 08:25:00,
2013-03-15 04:30:00,23.9,10.9,29.82,WNW,293,5.1,10.7,57,0.00,,,0.00,WUHU216HW,2013-03-15 08:30:00,
2013-03-15 04:35:00,23.7,10.7,29.82,NNW,338,1.8,8.7,57,0.00,,,0.00,WUHU216HW,2013-03-15 08:35:00,
2013-03-15 04:40:00,23.7,10.7,29.82,SW,225,0.4,8.5,57,0.00,,,0.00,WUHU216HW,2013-03-15 08:40:00,
2013-03-15 04:45:00,23.7,10.7,29.82,East,90,4.0,8.5,57,0.00,,,0.00,WUHU216HW,2013-03-15 08:45:00,
2013-03-15 04:50:00,23.7,10.7,29.82,West,270,2.7,6.7,57,0.00,,,0.00,WUHU216HW,2013-03-15 08:50:00,
2013-03-15 04:55:00,23.7,10.7,29.81,ENE,68,1.3,6.9,57,0.00,,,0.00,WUHU216HW,2013-03-15 08:55:00,
2013-03-15 05:00:00,23.6,10.6,29.82,North,0,1.8,6.9,57,0.00,,,0.00,WUHU216HW,2013-03-15 09:00:00,
2013-03-15 05:05:00,23.6,10.6,29.82,West,270,2.7,5.6,57,0.00,,,0.00,WUHU216HW,2013-03-15 09:05:00,
2013-03-15 05:10:00,23.6,10.6,29.82,NW,315,3.4,7.8,57,0.00,,,0.00,WUHU216HW,2013-03-15 09:10:00,
2013-03-15 05:15:00,23.6,10.6,29.82,NW,315,1.8,7.8,57,0.00,,,0.00,WUHU216HW,2013-03-15 09:15:00,
2013-03-15 05:20:00,23.6,10.6,29.82,SW,225,1.6,6.9,57,0.00,,,0.00,WUHU216HW,2013-03-15 09:20:00,
2013-03-15 05:25:00,23.6,10.6,29.82,SW,225,1.3,6.0,57,0.00,,,0.00,WUHU216HW,2013-03-15 09:25:00,
2013-03-15 05:30:00,23.6,10.6,29.82,WNW,293,4.5,10.1,57,0.00,,,0.00,WUHU216HW,2013-03-15 09:30:00,
2013-03-15 05:36:00,23.6,10.6,29.82,NW,315,0.7,10.1,57,0.00,,,0.00,WUHU216HW,2013-03-15 09:36:00,
2013-03-15 05:41:00,23.6,10.6,29.83,West,270,2.5,5.4,57,0.00,,,0.00,WUHU216HW,2013-03-15 09:41:00,
2013-03-15 05:46:00,23.6,10.6,29.83,West,270,5.1,7.6,57,0.00,,,0.00,WUHU216HW,2013-03-15 09:46:00,
2013-03-15 05:51:00,23.6,10.6,29.83,NNW,338,4.5,7.6,57,0.00,,,0.00,WUHU216HW,2013-03-15 09:51:00,
2013-03-15 05:57:00,23.6,10.6,29.83,West,270,1.8,6.5,57,0.00,,,0.00,WUHU216HW,2013-03-15 09:57:00,
2013-03-15 06:02:00,23.4,10.4,29.83,NNW,338,2.0,6.3,57,0.00,,,0.00,WUHU216HW,2013-03-15 10:02:00,
2013-03-15 06:07:00,23.4,10.4,29.84,WSW,248,1.6,6.3,57,0.00,,,0.00,WUHU216HW,2013-03-15 10:07:00,
2013-03-15 06:12:00,23.2,10.2,29.84,SW,225,1.6,4.9,57,0.00,,,0.00,WUHU216HW,2013-03-15 10:12:00,
2013-03-15 06:17:00,23.2,10.2,29.84,SSW,203,4.5,8.5,57,0.00,,,0.00,WUHU216HW,2013-03-15 10:17:00,
2013-03-15 06:22:00,23.2,10.2,29.84,West,270,4.0,8.5,57,0.00,,,0.00,WUHU216HW,2013-03-15 10:22:00,
2013-03-15 06:27:00,23.2,10.2,29.83,WSW,248,0.4,8.5,57,0.00,,,0.00,WUHU216HW,2013-03-15 10:27:00,
2013-03-15 06:32:00,23.0,10.0,29.83,WNW,293,3.4,4.3,57,0.00,,,0.00,WUHU216HW,2013-03-15 10:32:00,
2013-03-15 06:37:00,23.0,10.0,29.83,SSE,158,0.4,4.9,57,0.00,,,0.00,WUHU216HW,2013-03-15 10:37:00,
2013-03-15 06:42:00,23.0,10.0,29.83,WSW,248,1.8,4.9,57,0.00,,,0.00,WUHU216HW,2013-03-15 10:42:00,
2013-03-15 06:47:00,22.8,9.8,29.83,WNW,293,4.3,4.3,57,0.00,,,0.00,WUHU216HW,2013-03-15 10:47:00,
2013-03-15 06:52:00,22.8,9.8,29.83,West,270,1.8,4.3,57,0.00,,,0.00,WUHU216HW,2013-03-15 10:52:00,
2013-03-15 06:57:00,22.8,10.2,29.83,WSW,248,0.7,3.4,58,0.00,,,0.00,WUHU216HW,2013-03-15 10:57:00,
2013-03-15 07:02:00,22.7,10.2,29.83,SW,225,0.7,3.4,58,0.00,,,0.00,WUHU216HW,2013-03-15 11:02:00,
2013-03-15 07:08:00,22.7,10.2,29.83,West,270,1.3,4.0,58,0.00,,,0.00,WUHU216HW,2013-03-15 11:08:00,
2013-03-15 07:13:00,22.7,10.2,29.83,SW,225,3.6,4.0,58,0.00,,,0.00,WUHU216HW,2013-03-15 11:13:00,
2013-03-15 07:18:00,22.5,10.0,29.84,WSW,248,4.9,4.9,58,0.00,,,0.00,WUHU216HW,2013-03-15 11:18:00,
2013-03-15 07:23:00,22.5,10.4,29.84,West,270,4.5,4.9,59,0.00,,,0.00,WUHU216HW,2013-03-15 11:23:00,
2013-03-15 07:28:00,22.5,10.4,29.84,WSW,248,2.5,4.5,59,0.00,,,0.00,WUHU216HW,2013-03-15 11:28:00,
2013-03-15 07:33:00,22.5,10.4,29.84,WSW,248,0.9,4.5,59,0.00,,,0.00,WUHU216HW,2013-03-15 11:33:00,
2013-03-15 07:38:00,22.5,10.4,29.84,SSW,203,2.5,4.0,59,0.00,,,0.00,WUHU216HW,2013-03-15 11:38:00,
2013-03-15 07:43:00,22.3,10.2,29.84,SSW,203,2.5,3.8,59,0.00,,,0.00,WUHU216HW,2013-03-15 11:43:00,
2013-03-15 07:48:00,22.5,10.4,29.84,WSW,248,1.1,2.7,59,0.00,,,0.00,WUHU216HW,2013-03-15 11:48:00,
2013-03-15 07:53:00,22.5,10.4,29.84,SSW,203,0.7,3.4,59,0.00,,,0.00,WUHU216HW,2013-03-15 11:53:00,
2013-03-15 07:58:00,22.5,10.4,29.84,West,270,0.4,3.4,59,0.00,,,0.00,WUHU216HW,2013-03-15 11:58:00,
2013-03-15 08:03:00,22.3,10.2,29.84,West,270,0.9,2.5,59,0.00,,,0.00,WUHU216HW,2013-03-15 12:03:00,
2013-03-15 08:08:00,22.5,10.4,29.83,West,270,3.1,3.6,59,0.00,,,0.00,WUHU216HW,2013-03-15 12:08:00,
2013-03-15 08:13:00,22.5,10.4,29.83,SSW,203,0.9,3.6,59,0.00,,,0.00,WUHU216HW,2013-03-15 12:13:00,
2013-03-15 08:18:00,22.7,10.5,29.84,SSW,203,2.9,3.4,59,0.00,,,0.00,WUHU216HW,2013-03-15 12:18:00,
2013-03-15 08:23:00,22.8,10.6,29.83,WSW,248,1.1,6.7,59,0.00,,,0.00,WUHU216HW,2013-03-15 12:23:00,
2013-03-15 08:28:00,22.8,11.0,29.83,WSW,248,0.9,6.7,60,0.00,,,0.00,WUHU216HW,2013-03-15 12:28:00,
2013-03-15 08:34:00,22.8,11.0,29.83,SSW,203,1.8,4.9,60,0.00,,,0.00,WUHU216HW,2013-03-15 12:34:00,
2013-03-15 08:39:00,23.2,11.4,29.83,SSW,203,4.7,4.9,60,0.00,,,0.00,WUHU216HW,2013-03-15 12:39:00,
2013-03-15 08:44:00,23.4,11.6,29.83,South,180,1.8,6.3,60,0.00,,,0.00,WUHU216HW,2013-03-15 12:44:00,
2013-03-15 08:49:00,23.6,11.8,29.83,NW,315,0.9,6.3,60,0.00,,,0.00,WUHU216HW,2013-03-15 12:49:00,
2013-03-15 08:54:00,23.6,11.8,29.83,SSW,203,2.7,5.6,60,0.00,,,0.00,WUHU216HW,2013-03-15 12:54:00,
2013-03-15 08:59:00,23.7,11.9,29.83,NNW,338,2.0,5.6,60,0.00,,,0.00,WUHU216HW,2013-03-15 12:59:00,
2013-03-15 09:04:00,23.9,12.1,29.83,West,270,3.8,5.4,60,0.00,,,0.00,WUHU216HW,2013-03-15 13:04:00,
2013-03-15 09:09:00,23.9,12.1,29.83,SSW,203,4.5,5.4,60,0.00,,,0.00,WUHU216HW,2013-03-15 13:09:00,
2013-03-15 09:14:00,24.1,12.2,29.82,WNW,293,5.1,5.1,60,0.00,,,0.00,WUHU216HW,2013-03-15 13:14:00,
2013-03-15 09:19:00,24.3,12.4,29.82,SSW,203,2.9,7.4,60,0.00,,,0.00,WUHU216HW,2013-03-15 13:19:00,
2013-03-15 09:24:00,24.5,13.0,29.81,West,270,1.8,7.4,61,0.00,,,0.00,WUHU216HW,2013-03-15 13:24:00,
2013-03-15 09:29:00,24.6,12.7,29.81,West,270,2.5,5.4,60,0.00,,,0.00,WUHU216HW,2013-03-15 13:29:00,
2013-03-15 09:34:00,24.6,12.7,29.81,SW,225,5.4,5.4,60,0.00,,,0.00,WUHU216HW,2013-03-15 13:34:00,
2013-03-15 09:39:00,25.0,13.1,29.81,SW,225,0.7,5.4,60,0.00,,,0.00,WUHU216HW,2013-03-15 13:39:00,
2013-03-15 09:44:00,25.2,13.3,29.81,WSW,248,5.1,5.6,60,0.00,,,0.00,WUHU216HW,2013-03-15 13:44:00,
2013-03-15 09:49:00,25.5,13.6,29.81,SSW,203,3.4,7.4,60,0.00,,,0.00,WUHU216HW,2013-03-15 13:49:00,
2013-03-15 09:54:00,25.7,13.4,29.81,NNW,338,4.7,7.4,59,0.00,,,0.00,WUHU216HW,2013-03-15 13:54:00,
2013-03-15 09:59:00,26.1,13.8,29.81,West,270,3.4,6.9,59,0.00,,,0.00,WUHU216HW,2013-03-15 13:59:00,
2013-03-15 10:04:00,26.3,13.5,29.80,SW,225,1.8,7.8,58,0.00,,,0.00,WUHU216HW,2013-03-15 14:04:00,
2013-03-15 10:09:00,26.4,13.6,29.79,WNW,293,2.5,7.8,58,0.00,,,0.00,WUHU216HW,2013-03-15 14:09:00,
2013-03-15 10:14:00,26.8,13.6,29.79,SSW,203,4.9,4.9,57,0.00,,,0.00,WUHU216HW,2013-03-15 14:14:00,
2013-03-15 10:19:00,27.2,14.0,29.79,SSW,203,4.0,5.1,57,0.00,,,0.00,WUHU216HW,2013-03-15 14:19:00,
2013-03-15 10:24:00,27.5,14.3,29.79,WSW,248,2.0,5.1,57,0.00,,,0.00,WUHU216HW,2013-03-15 14:24:00,
2013-03-15 10:30:00,28.1,14.4,29.79,WSW,248,2.0,7.6,56,0.00,,,0.00,WUHU216HW,2013-03-15 14:30:00,
2013-03-15 10:35:00,28.6,14.9,29.79,SW,225,5.1,9.2,56,0.00,,,0.00,WUHU216HW,2013-03-15 14:35:00,
2013-03-15 10:40:00,28.8,15.1,29.78,SE,135,1.8,9.2,56,0.00,,,0.00,WUHU216HW,2013-03-15 14:40:00,
2013-03-15 10:45:00,29.1,14.9,29.78,South,180,5.8,7.6,55,0.00,,,0.00,WUHU216HW,2013-03-15 14:45:00,
2013-03-15 10:50:00,29.3,15.1,29.78,SSW,203,6.0,8.7,55,0.00,,,0.00,WUHU216HW,2013-03-15 14:50:00,
2013-03-15 10:55:00,29.9,16.1,29.78,WSW,248,5.1,8.7,56,0.00,,,0.00,WUHU216HW,2013-03-15 14:55:00,
2013-03-15 11:00:00,30.2,16.4,29.77,WSW,248,3.4,7.6,56,0.00,,,0.00,WUHU216HW,2013-03-15 15:00:00,
2013-03-15 11:05:00,30.6,16.8,29.77,SSE,158,3.6,7.6,56,0.00,,,0.00,WUHU216HW,2013-03-15 15:05:00,
2013-03-15 11:10:00,31.1,17.2,29.77,West,270,3.4,9.2,56,0.00,,,0.00,WUHU216HW,2013-03-15 15:10:00,
2013-03-15 11:15:00,31.5,17.6,29.76,SSW,203,2.0,9.6,56,0.00,,,0.00,WUHU216HW,2013-03-15 15:15:00,
2013-03-15 11:20:00,31.3,17.4,29.76,West,270,3.8,9.8,56,0.00,,,0.00,WUHU216HW,2013-03-15 15:20:00,
2013-03-15 11:25:00,31.5,17.6,29.76,WSW,248,7.6,9.8,56,0.00,,,0.00,WUHU216HW,2013-03-15 15:25:00,
2013-03-15 11:30:00,31.5,17.6,29.76,South,180,4.7,9.2,56,0.00,,,0.00,WUHU216HW,2013-03-15 15:30:00,
2013-03-15 11:35:00,31.7,17.8,29.76,West,270,5.4,8.1,56,0.00,,,0.00,WUHU216HW,2013-03-15 15:35:00,
2013-03-15 11:40:00,31.8,17.9,29.76,West,270,5.8,8.1,56,0.00,,,0.00,WUHU216HW,2013-03-15 15:40:00,
2013-03-15 11:45:00,32.0,18.1,29.75,SW,225,6.9,7.4,56,0.00,,,0.00,WUHU216HW,2013-03-15 15:45:00,
2013-03-15 11:50:00,32.0,18.1,29.75,SSE,158,4.9,8.3,56,0.00,,,0.00,WUHU216HW,2013-03-15 15:50:00,
2013-03-15 11:55:00,32.4,18.5,29.75,SW,225,4.5,13.4,56,0.00,,,0.00,WUHU216HW,2013-03-15 15:55:00,
2013-03-15 12:01:00,32.4,18.0,29.74,WNW,293,4.5,13.4,55,0.00,,,0.00,WUHU216HW,2013-03-15 16:01:00,
2013-03-15 12:06:00,32.4,18.0,29.73,ESE,113,7.6,11.4,55,0.00,,,0.00,WUHU216HW,2013-03-15 16:06:00,
2013-03-15 12:11:00,32.2,17.8,29.73,WNW,293,6.9,11.0,55,0.00,,,0.00,WUHU216HW,2013-03-15 16:11:00,
2013-03-15 12:16:00,32.2,17.8,29.73,West,270,3.1,11.0,55,0.00,,,0.00,WUHU216HW,2013-03-15 16:16:00,
2013-03-15 12:21:00,32.4,18.0,29.73,SW,225,5.4,9.2,55,0.00,,,0.00,WUHU216HW,2013-03-15 16:21:00,
2013-03-15 12:26:00,32.7,18.3,29.72,WSW,248,6.3,9.2,55,0.00,,,0.00,WUHU216HW,2013-03-15 16:26:00,
2013-03-15 12:32:00,32.9,18.5,29.72,South,180,6.5,9.4,55,0.00,,,0.00,WUHU216HW,2013-03-15 16:32:00,
2013-03-15 12:37:00,33.1,18.7,29.72,SSW,203,6.0,9.6,55,0.00,,,0.00,WUHU216HW,2013-03-15 16:37:00,
2013-03-15 12:42:00,33.3,18.9,29.71,WSW,248,4.0,9.6,55,0.00,,,0.00,WUHU216HW,2013-03-15 16:42:00,
2013-03-15 12:47:00,33.3,18.9,29.71,SSW,203,7.6,12.1,55,0.00,,,0.00,WUHU216HW,2013-03-15 16:47:00,
2013-03-15 12:52:00,33.3,18.9,29.71,South,180,4.7,12.1,55,0.00,,,0.00,WUHU216HW,2013-03-15 16:52:00,
2013-03-15 12:57:00,33.3,18.9,29.71,SW,225,3.8,9.8,55,0.00,,,0.00,WUHU216HW,2013-03-15 16:57:00,
2013-03-15 13:02:00,33.3,18.9,29.71,West,270,6.0,9.8,55,0.00,,,0.00,WUHU216HW,2013-03-15 17:02:00,
2013-03-15 13:07:00,33.1,18.7,29.71,SW,225,4.7,9.2,55,0.00,,,0.00,WUHU216HW,2013-03-15 17:07:00,
2013-03-15 13:12:00,33.1,18.7,29.71,WSW,248,5.1,9.2,55,0.00,,,0.00,WUHU216HW,2013-03-15 17:12:00,
2013-03-15 13:17:00,33.3,18.9,29.71,SSW,203,4.5,9.2,55,0.00,,,0.00,WUHU216HW,2013-03-15 17:17:00,
2013-03-15 13:22:00,33.3,18.9,29.71,SSW,203,1.8,9.2,55,0.00,,,0.00,WUHU216HW,2013-03-15 17:22:00,
2013-03-15 13:27:00,33.5,19.5,29.70,NW,315,2.0,8.7,56,0.00,,,0.00,WUHU216HW,2013-03-15 17:27:00,
2013-03-15 13:32:00,33.6,19.1,29.70,WSW,248,2.5,9.2,55,0.00,,,0.00,WUHU216HW,2013-03-15 17:32:00,
2013-03-15 13:37:00,33.6,19.6,29.70,South,180,4.0,9.2,56,0.00,,,0.00,WUHU216HW,2013-03-15 17:37:00,
2013-03-15 13:42:00,33.6,19.6,29.69,SW,225,6.3,8.5,56,0.00,,,0.00,WUHU216HW,2013-03-15 17:42:00,
2013-03-15 13:47:00,34.0,20.0,29.69,West,270,2.2,10.5,56,0.00,,,0.00,WUHU216HW,2013-03-15 17:47:00,
2013-03-15 13:52:00,34.4,20.3,29.68,WSW,248,5.8,10.5,56,0.00,,,0.00,WUHU216HW,2013-03-15 17:52:00,
2013-03-15 13:58:00,34.7,20.6,29.68,SW,225,5.8,6.3,56,0.00,,,0.00,WUHU216HW,2013-03-15 17:58:00,
2013-03-15 14:03:00,35.1,21.0,29.68,WSW,248,3.4,9.4,56,0.00,,,0.00,WUHU216HW,2013-03-15 18:03:00,
2013-03-15 14:08:00,35.1,20.6,29.68,WSW,248,5.8,9.4,55,0.00,,,0.00,WUHU216HW,2013-03-15 18:08:00,
2013-03-15 14:13:00,35.1,21.0,29.68,South,180,4.9,8.5,56,0.00,,,0.00,WUHU216HW,2013-03-15 18:13:00,
2013-03-15 14:18:00,35.4,21.3,29.67,WSW,248,4.5,9.2,56,0.00,,,0.00,WUHU216HW,2013-03-15 18:18:00,
2013-03-15 14:23:00,35.6,21.0,29.67,South,180,4.5,9.2,55,0.00,,,0.00,WUHU216HW,2013-03-15 18:23:00,
2013-03-15 14:28:00,35.8,21.2,29.66,SSW,203,6.0,9.2,55,0.00,,,0.00,WUHU216HW,2013-03-15 18:28:00,
2013-03-15 14:33:00,35.8,21.2,29.66,SSE,158,2.5,10.7,55,0.00,,,0.00,WUHU216HW,2013-03-15 18:33:00,
2013-03-15 14:38:00,35.8,21.2,29.66,SSW,203,7.4,11.2,55,0.00,,,0.00,WUHU216HW,2013-03-15 18:38:00,
2013-03-15 14:43:00,35.8,21.2,29.66,SSE,158,2.5,11.2,55,0.00,,,0.00,WUHU216HW,2013-03-15 18:43:00,
2013-03-15 14:48:00,35.8,21.2,29.65,West,270,4.7,12.1,55,0.00,,,0.00,WUHU216HW,2013-03-15 18:48:00,
2013-03-15 14:53:00,35.6,21.5,29.65,SW,225,4.5,12.1,56,0.00,,,0.00,WUHU216HW,2013-03-15 18:53:00,
2013-03-15 14:58:00,35.6,21.5,29.65,NW,315,7.6,9.2,56,0.00,,,0.00,WUHU216HW,2013-03-15 18:58:00,
2013-03-15 15:04:00,35.6,21.5,29.65,SSW,203,6.0,8.3,56,0.00,,,0.00,WUHU216HW,2013-03-15 19:04:00,
2013-03-15 15:09:00,35.8,21.6,29.65,SSW,203,8.3,9.8,56,0.00,,,0.00,WUHU216HW,2013-03-15 19:09:00,
2013-03-15 15:14:00,35.8,22.1,29.64,SW,225,4.7,9.8,57,0.00,,,0.00,WUHU216HW,2013-03-15 19:14:00,
2013-03-15 15:19:00,35.6,21.9,29.64,West,270,6.5,11.0,57,0.00,,,0.00,WUHU216HW,2013-03-15 19:19:00,
2013-03-15 15:24:00,35.6,21.9,29.63,SSW,203,2.0,11.0,57,0.00,,,0.00,WUHU216HW,2013-03-15 19:24:00,
2013-03-15 15:29:00,35.8,22.1,29.63,SSW,203,7.6,10.1,57,0.00,,,0.00,WUHU216HW,2013-03-15 19:29:00,
2013-03-15 15:34:00,35.8,22.1,29.63,SSE,158,8.5,10.5,57,0.00,,,0.00,WUHU216HW,2013-03-15 19:34:00,
2013-03-15 15:39:00,35.8,22.1,29.63,SW,225,6.5,10.5,57,0.00,,,0.00,WUHU216HW,2013-03-15 19:39:00,
2013-03-15 15:44:00,36.2,22.5,29.63,SW,225,6.3,10.1,57,0.00,,,0.00,WUHU216HW,2013-03-15 19:44:00,
2013-03-15 15:49:00,36.3,22.5,29.63,SSE,158,2.5,10.1,57,0.00,,,0.00,WUHU216HW,2013-03-15 19:49:00,
2013-03-15 15:54:00,36.5,22.3,29.63,SW,225,6.5,9.4,56,0.00,,,0.00,WUHU216HW,2013-03-15 19:54:00,
2013-03-15 15:59:00,36.5,22.3,29.63,SSW,203,6.3,10.7,56,0.00,,,0.00,WUHU216HW,2013-03-15 19:59:00,
2013-03-15 16:04:00,36.5,22.7,29.63,SSW,203,5.6,10.7,57,0.00,,,0.00,WUHU216HW,2013-03-15 20:04:00,
2013-03-15 16:09:00,36.5,22.7,29.63,SW,225,7.4,8.9,57,0.00,,,0.00,WUHU216HW,2013-03-15 20:09:00,
2013-03-15 16:14:00,36.5,22.7,29.62,South,180,10.3,11.9,57,0.00,,,0.00,WUHU216HW,2013-03-15 20:14:00,
2013-03-15 16:19:00,36.7,22.9,29.62,South,180,6.3,11.9,57,0.00,,,0.00,WUHU216HW,2013-03-15 20:19:00,
2013-03-15 16:24:00,36.9,23.1,29.62,WSW,248,4.9,10.5,57,0.00,,,0.00,WUHU216HW,2013-03-15 20:24:00,
2013-03-15 16:29:00,36.9,23.1,29.62,SW,225,3.8,8.3,57,0.00,,,0.00,WUHU216HW,2013-03-15 20:29:00,
2013-03-15 16:34:00,37.1,23.3,29.62,WNW,293,7.6,7.6,57,0.00,,,0.00,WUHU216HW,2013-03-15 20:34:00,
2013-03-15 16:40:00,37.2,23.4,29.62,SW,225,4.9,9.8,57,0.00,,,0.00,WUHU216HW,2013-03-15 20:40:00,
2013-03-15 16:45:00,37.2,23.4,29.61,SW,225,6.0,9.8,57,0.00,,,0.00,WUHU216HW,2013-03-15 20:45:00,
2013-03-15 16:50:00,37.2,23.4,29.61,WSW,248,4.5,9.6,57,0.00,,,0.00,WUHU216HW,2013-03-15 20:50:00,
2013-03-15 16:55:00,37.4,23.6,29.61,WSW,248,7.4,9.6,57,0.00,,,0.00,WUHU216HW,2013-03-15 20:55:00,
2013-03-15 17:00:00,37.4,23.6,29.61,SW,225,5.6,11.2,57,0.00,,,0.00,WUHU216HW,2013-03-15 21:00:00,
2013-03-15 17:05:00,37.6,23.8,29.61,SSW,203,4.5,11.2,57,0.00,,,0.00,WUHU216HW,2013-03-15 21:05:00,
2013-03-15 17:10:00,37.6,23.8,29.61,West,270,7.6,10.5,57,0.00,,,0.00,WUHU216HW,2013-03-15 21:10:00,
2013-03-15 17:15:00,37.8,24.0,29.61,West,270,5.4,10.5,57,0.00,,,0.00,WUHU216HW,2013-03-15 21:15:00,
2013-03-15 17:20:00,37.8,24.0,29.61,WSW,248,2.9,10.5,57,0.00,,,0.00,WUHU216HW,2013-03-15 21:20:00,
2013-03-15 17:25:00,38.0,24.1,29.61,West,270,6.3,9.6,57,0.00,,,0.00,WUHU216HW,2013-03-15 21:25:00,
2013-03-15 17:30:00,38.0,24.1,29.61,West,270,1.8,9.6,57,0.00,,,0.00,WUHU216HW,2013-03-15 21:30:00,
2013-03-15 17:35:00,38.0,24.1,29.60,SSW,203,2.5,8.9,57,0.00,,,0.00,WUHU216HW,2013-03-15 21:35:00,
2013-03-15 17:40:00,38.1,24.2,29.60,WSW,248,6.0,7.8,57,0.00,,,0.00,WUHU216HW,2013-03-15 21:40:00,
2013-03-15 17:46:00,38.3,24.4,29.60,SSW,203,8.5,8.5,57,0.00,,,0.00,WUHU216HW,2013-03-15 21:46:00,
2013-03-15 17:51:00,38.5,24.6,29.60,SSE,158,2.5,8.5,57,0.00,,,0.00,WUHU216HW,2013-03-15 21:51:00,
2013-03-15 17:55:00,38.7,24.4,29.60,SSW,203,5.4,9.4,56,0.00,,,0.00,WUHU216HW,2013-03-15 21:55:00,
2013-03-15 18:01:00,38.7,24.4,29.60,WSW,248,4.9,9.4,56,0.00,,,0.00,WUHU216HW,2013-03-15 22:01:00,
2013-03-15 18:06:00,38.9,24.6,29.61,SW,225,5.4,9.2,56,0.00,,,0.00,WUHU216HW,2013-03-15 22:06:00,
2013-03-15 18:11:00,39.0,24.7,29.61,SSE,158,9.6,9.6,56,0.00,,,0.00,WUHU216HW,2013-03-15 22:11:00,
2013-03-15 18:16:00,39.2,24.8,29.61,West,270,7.4,9.6,56,0.00,,,0.00,WUHU216HW,2013-03-15 22:16:00,
2013-03-15 18:21:00,39.2,24.8,29.61,WSW,248,5.1,11.4,56,0.00,,,0.00,WUHU216HW,2013-03-15 22:21:00,
2013-03-15 18:26:00,39.4,25.0,29.61,WNW,293,3.8,11.4,56,0.00,,,0.00,WUHU216HW,2013-03-15 22:26:00,
2013-03-15 18:32:00,39.4,25.0,29.61,South,180,2.5,9.4,56,0.00,,,0.00,WUHU216HW,2013-03-15 22:32:00,
2013-03-15 18:37:00,39.4,25.0,29.61,SW,225,3.4,9.4,56,0.00,,,0.00,WUHU216HW,2013-03-15 22:37:00,
2013-03-15 18:42:00,39.6,25.2,29.61,WSW,248,5.1,9.4,56,0.00,,,0.00,WUHU216HW,2013-03-15 22:42:00,
2013-03-15 18:47:00,39.6,25.2,29.61,West,270,6.9,7.4,56,0.00,,,0.00,WUHU216HW,2013-03-15 22:47:00,
2013-03-15 18:52:00,39.6,25.2,29.61,West,270,6.3,10.5,56,0.00,,,0.00,WUHU216HW,2013-03-15 22:52:00,
2013-03-15 18:57:00,39.8,25.4,29.62,West,270,9.2,10.5,56,0.00,,,0.00,WUHU216HW,2013-03-15 22:57:00,
2013-03-15 19:02:00,40.1,25.7,29.62,NW,315,11.4,11.4,56,0.00,,,0.00,WUHU216HW,2013-03-15 23:02:00,
2013-03-15 19:07:00,40.1,25.7,29.62,WSW,248,3.1,11.4,56,0.00,,,0.00,WUHU216HW,2013-03-15 23:07:00,
2013-03-15 19:12:00,40.1,25.7,29.62,WSW,248,6.3,11.4,56,0.00,,,0.00,WUHU216HW,2013-03-15 23:12:00,
2013-03-15 19:17:00,40.1,25.7,29.62,WNW,293,10.5,11.0,56,0.00,,,0.00,WUHU216HW,2013-03-15 23:17:00,
2013-03-15 19:22:00,40.1,25.7,29.62,NW,315,4.3,11.0,56,0.00,,,0.00,WUHU216HW,2013-03-15 23:22:00,
2013-03-15 19:27:00,40.1,26.1,29.63,West,270,6.3,10.5,57,0.00,,,0.00,WUHU216HW,2013-03-15 23:27:00,
2013-03-15 19:32:00,40.1,26.1,29.63,SW,225,3.8,9.6,57,0.00,,,0.00,WUHU216HW,2013-03-15 23:32:00,
2013-03-15 19:37:00,40.1,26.1,29.63,West,270,7.6,9.6,57,0.00,,,0.00,WUHU216HW,2013-03-15 23:37:00,
2013-03-15 19:42:00,40.1,26.1,29.63,SW,225,4.3,9.8,57,0.00,,,0.00,WUHU216HW,2013-03-15 23:42:00,
2013-03-15 19:48:00,40.1,26.1,29.63,West,270,6.5,10.5,57,0.00,,,0.00,WUHU216HW,2013-03-15 23:48:00,
2013-03-15 19:53:00,40.1,26.5,29.63,West,270,15.2,16.6,58,0.00,,,0.00,WUHU216HW,2013-03-15 23:53:00,
2013-03-15 19:58:00,39.9,26.8,29.63,NW,315,12.3,16.6,59,0.00,,,0.00,WUHU216HW,2013-03-15 23:58:00,
2013-03-15 20:03:00,39.9,26.8,29.63,NNW,338,7.8,15.2,59,0.00,,,0.00,WUHU216HW,2013-03-16 00:03:00,
2013-03-15 20:08:00,39.9,27.2,29.63,West,270,10.5,11.2,60,0.00,,,0.00,WUHU216HW,2013-03-16 00:08:00,
2013-03-15 20:13:00,39.9,27.2,29.63,WNW,293,5.8,11.2,60,0.00,,,0.00,WUHU216HW,2013-03-16 00:13:00,
2013-03-15 20:18:00,39.9,27.2,29.63,SW,225,8.5,10.7,60,0.00,,,0.00,WUHU216HW,2013-03-16 00:18:00,
2013-03-15 20:23:00,39.9,27.2,29.63,WSW,248,5.8,9.2,60,0.00,,,0.00,WUHU216HW,2013-03-16 00:23:00,
2013-03-15 20:28:00,39.9,27.2,29.63,West,270,5.8,10.5,60,0.00,,,0.00,WUHU216HW,2013-03-16 00:28:00,
2013-03-15 20:33:00,39.9,27.2,29.63,WNW,293,3.4,10.5,60,0.00,,,0.00,WUHU216HW,2013-03-16 00:33:00,
2013-03-15 20:38:00,39.9,27.2,29.63,WNW,293,7.6,10.7,60,0.00,,,0.00,WUHU216HW,2013-03-16 00:38:00,
2013-03-15 20:43:00,39.8,27.5,29.63,NW,315,7.4,11.0,61,0.00,,,0.00,WUHU216HW,2013-03-16 00:43:00,
2013-03-15 20:48:00,39.6,27.3,29.63,NW,315,4.7,11.0,61,0.00,,,0.00,WUHU216HW,2013-03-16 00:48:00,
2013-03-15 20:53:00,39.6,27.3,29.63,West,270,4.3,8.1,61,0.00,,,0.00,WUHU216HW,2013-03-16 00:53:00,
2013-03-15 20:58:00,39.6,27.3,29.64,West,270,5.8,6.5,61,0.00,,,0.00,WUHU216HW,2013-03-16 00:58:00,
2013-03-15 21:03:00,39.6,27.3,29.63,WSW,248,4.7,7.2,61,0.00,,,0.00,WUHU216HW,2013-03-16 01:03:00,
2013-03-15 21:08:00,39.4,27.1,29.64,WNW,293,6.7,9.2,61,0.00,,,0.00,WUHU216HW,2013-03-16 01:08:00,
2013-03-15 21:13:00,39.4,27.1,29.64,West,270,4.0,9.2,61,0.00,,,0.00,WUHU216HW,2013-03-16 01:13:00,
2013-03-15 21:18:00,39.2,26.9,29.64,WSW,248,4.9,8.5,61,0.00,,,0.00,WUHU216HW,2013-03-16 01:18:00,
2013-03-15 21:23:00,39.2,27.3,29.65,WNW,293,6.3,8.5,62,0.00,,,0.00,WUHU216HW,2013-03-16 01:23:00,
2013-03-15 21:29:00,39.0,27.2,29.65,WNW,293,6.9,8.7,62,0.00,,,0.00,WUHU216HW,2013-03-16 01:29:00,
2013-03-15 21:34:00,39.0,27.2,29.65,SW,225,7.4,9.8,62,0.00,,,0.00,WUHU216HW,2013-03-16 01:34:00,
2013-03-15 21:39:00,38.9,27.4,29.65,NNW,338,7.2,12.1,63,0.00,,,0.00,WUHU216HW,2013-03-16 01:39:00,
2013-03-15 21:44:00,38.9,27.4,29.65,NW,315,5.4,12.1,63,0.00,,,0.00,WUHU216HW,2013-03-16 01:44:00,
2013-03-15 21:49:00,38.9,27.4,29.65,West,270,5.4,9.2,63,0.00,,,0.00,WUHU216HW,2013-03-16 01:49:00,
2013-03-15 21:54:00,38.9,27.4,29.65,WNW,293,5.1,10.1,63,0.00,,,0.00,WUHU216HW,2013-03-16 01:54:00,
2013-03-15 21:59:00,38.7,27.3,29.65,WNW,293,4.7,10.1,63,0.00,,,0.00,WUHU216HW,2013-03-16 01:59:00,
2013-03-15 22:04:00,38.7,27.3,29.65,NNW,338,2.9,8.3,63,0.00,,,0.00,WUHU216HW,2013-03-16 02:04:00,
2013-03-15 22:09:00,38.7,27.3,29.65,NNW,338,4.0,8.3,63,0.00,,,0.00,WUHU216HW,2013-03-16 02:09:00,
2013-03-15 22:14:00,38.7,27.3,29.66,SW,225,2.9,5.4,63,0.00,,,0.00,WUHU216HW,2013-03-16 02:14:00,
2013-03-15 22:19:00,38.7,27.3,29.66,WNW,293,4.7,5.4,63,0.00,,,0.00,WUHU216HW,2013-03-16 02:19:00,
2013-03-15 22:24:00,38.5,27.1,29.66,WNW,293,2.2,5.6,63,0.00,,,0.00,WUHU216HW,2013-03-16 02:24:00,
2013-03-15 22:29:00,38.1,26.7,29.66,West,270,1.3,5.6,63,0.00,,,0.00,WUHU216HW,2013-03-16 02:29:00,
2013-03-15 22:34:00,38.0,26.6,29.66,NNW,338,1.3,4.0,63,0.00,,,0.00,WUHU216HW,2013-03-16 02:34:00,
2013-03-15 22:39:00,37.6,26.2,29.66,WNW,293,3.6,4.9,63,0.00,,,0.00,WUHU216HW,2013-03-16 02:39:00,
2013-03-15 22:45:00,37.2,25.8,29.66,West,270,1.8,4.9,63,0.00,,,0.00,WUHU216HW,2013-03-16 02:45:00,
2013-03-15 22:50:00,37.1,25.7,29.66,West,270,2.9,5.4,63,0.00,,,0.00,WUHU216HW,2013-03-16 02:50:00,
2013-03-15 22:55:00,36.9,25.5,29.67,West,270,1.1,5.4,63,0.00,,,0.00,WUHU216HW,2013-03-16 02:55:00,
2013-03-15 23:00:00,36.7,25.7,29.67,WNW,293,3.1,6.9,64,0.00,,,0.00,WUHU216HW,2013-03-16 03:00:00,
2013-03-15 23:05:00,36.5,25.5,29.67,WNW,293,2.5,6.9,64,0.00,,,0.00,WUHU216HW,2013-03-16 03:05:00,
2013-03-15 23:10:00,36.5,25.5,29.67,WNW,293,7.6,7.6,64,0.00,,,0.00,WUHU216HW,2013-03-16 03:10:00,
2013-03-15 23:15:00,36.3,25.4,29.67,NW,315,2.5,7.6,64,0.00,,,0.00,WUHU216HW,2013-03-16 03:15:00,
2013-03-15 23:20:00,36.2,25.6,29.67,WNW,293,3.1,7.6,65,0.00,,,0.00,WUHU216HW,2013-03-16 03:20:00,
2013-03-15 23:25:00,36.0,25.4,29.67,West,270,4.5,5.4,65,0.00,,,0.00,WUHU216HW,2013-03-16 03:25:00,
2013-03-15 23:30:00,36.0,25.4,29.67,WSW,248,6.3,6.3,65,0.00,,,0.00,WUHU216HW,2013-03-16 03:30:00,
2013-03-15 23:35:00,35.8,25.6,29.67,WNW,293,4.0,6.3,66,0.00,,,0.00,WUHU216HW,2013-03-16 03:35:00,
2013-03-15 23:40:00,35.8,25.6,29.66,WNW,293,4.0,6.7,66,0.00,,,0.00,WUHU216HW,2013-03-16 03:40:00,
2013-03-15 23:45:00,35.6,25.4,29.66,NW,315,2.5,6.7,66,0.00,,,0.00,WUHU216HW,2013-03-16 03:45:00,
2013-03-15 23:50:00,35.4,25.2,29.66,WNW,293,4.5,5.6,66,0.00,,,0.00,WUHU216HW,2013-03-16 03:50:00,
2013-03-15 23:55:00,35.4,25.2,29.66,WNW,293,1.3,5.4,66,0.00,,,0.00,WUHU216HW,2013-03-16 03:55:00,